Starlink 5209

operational
NORAD ID: 54061 Int'l Des: 2022-136 Owner: SPXS Country: US Constellation: starlink
LEOCIRCULAR

Starlink 5209について

説明を読み込み中...

リアルタイム位置

3D地球を読み込み中...

次回通過

高度履歴

Altitude vs Time

uPlot chart will show altitude changes over time

軌道要素

1 54061U 22136L 26095.54279760 .00001986 00000-0 14288-3 0 9992
2 54061 53.2163 188.1849 0001169 85.1887 274.9238 15.08829533191393
Epoch: Apr 5, 2026 • Age: 5 hours

現在のステータス

高度 543.5 km
速度 7.60 km/s
衛星直下点 44.09°N, 128.36°E
打ち上げ日 Oct 20, 2022
運用期間 3.4 years
タイプ internet

技術仕様

分類 Payload
質量 305.00 kg
乾燥質量 290.00 kg
総質量 305.00 kg
長さ 0.20 m
直径 2.80 m
スパン 9.00 m
形状 Box + pan
製造者 SPXS
バスタイプ Starlink
フェーズステータス In Orbit
所有者/国 SPXS/US

大規模コンステレーション

Loading constellations...